星链-35233(STARLINK-35233)

导读

STARLINK-35233是美国SpaceX星链计划的卫星,于2025年9月21日发射。星链项目旨在构建全球卫星互联网星座,为全球提供高速互联网接入服务。该卫星加入庞大的星链卫星组网,持续推进低轨卫星互联网的覆盖范围与服务能力,助力全球网络普及,尤其是偏远地区互联网连接。

Basic Information
目录编号:
65678
目录名称:
STARLINK-35233
国际标识:
2025-212C
轨道中心:
EARTH
卫星名称:
星链-35233
卫星全名:
星链-35233(STARLINK-35233)
卫星状态:
在轨 (已飞行349 天)
发射日期:
2025-09-21 UTC
国别 :
美国 (US)
星等 :
--
Orbit Information
数据来源 国际轨道数据 AOE轨道数据
星历时间 2026-09-05T17:15:07+0800
8小时前
查看轨道信息
2026-09-03T23:00:00+0800
2天前
查看轨道信息
半长轴 6848.85km 6848.84km
偏心率 0.0001367 0.000084
轨道倾角 53.157° 53.159°
近地点辐角 89.626° 68.265°
升交点赤经 230.454° 238.654°
平近点角 270.490° 298.794°
近地点 469.776km 470.127km
远地点 471.65km 471.279km
周期 94.013分钟 94.012分钟
每日圈数 15.317091 15.317127
Detailed Information
固有亮度:
5
最大亮度:
2.5
卫星平台:
Starlink V1.0
覆盖范围:
全球
运营商:
太空探索技术公司
运营商所在国:
美国
制造商(研发单位):
太空探索技术公司
制造商所在国:
美国
使用方式:
暂无
Satellite Introduction
Starlink 计划是 SpaceX 推出的全球卫星互联网项目,通过发射低轨道卫星,为全球尤其是偏远地区提供高速、低延迟的互联网服务。自 2019 年起,Starlink 已部署数千颗卫星,旨在缩小全球数字鸿沟,推动互联网普及。该项目还为军事、航空等行业提供通信支持,带来广泛经济效益。
2D Orbit Map
3D Orbit Map
Orbit Altitude Analysis Chart
Orbit Inclination Analysis Chart
Orbit Comprehensive Analysis Chart
View Comprehensive Chart